ANA4318 ZSPD-RJFF

Flight info

Callsign ANA4318
Flight time N/A
Altitude 35000
Route LAMEN/N0462F350 A593 SADLI Y590 BEDAR Y591 FUE Y253 ATSAG
Aircraft B738/M-SDE2E3FGHIRWXY/LB1

Departure

Time N/A
Airport Shanghai Pudong International Airport (ZSPD)

Arrival

Time 2026-04-30 18:45
Airport Fukuoka Airport (RJFF)
Time Latitude Longitude Altitude Speed Heading
2026-04-30 17:39 32.14982 127.41361 34951 ft 556 kts 65°
2026-04-30 17:41 32.27520 127.74747 33080 ft 561 kts 67°
2026-04-30 17:42 32.30573 127.82991 32626 ft 564 kts 68°
2026-04-30 17:42 32.35292 127.95774 31967 ft 566 kts 68°
2026-04-30 17:43 32.38440 128.04317 31526 ft 567 kts 68°
2026-04-30 17:44 32.43126 128.17065 30856 ft 560 kts 68°
2026-04-30 17:44 32.47789 128.29791 30173 ft 559 kts 68°
2026-04-30 17:46 32.55361 128.50594 29019 ft 551 kts 69°
2026-04-30 17:47 32.61334 128.67059 28070 ft 544 kts 70°
2026-04-30 17:48 32.65387 128.77907 27437 ft 539 kts 65°
2026-04-30 17:48 32.72406 128.87717 26753 ft 527 kts 35°
2026-04-30 17:49 32.84079 128.97800 25811 ft 518 kts 30°
2026-04-30 17:50 32.95720 129.07681 24857 ft 510 kts 32°
2026-04-30 17:51 33.04253 129.15126 24164 ft 502 kts 33°
2026-04-30 17:52 33.12627 129.22478 23231 ft 492 kts 34°
2026-04-30 17:53 33.26246 129.34471 20316 ft 482 kts 34°
2026-04-30 17:54 33.36912 129.43887 17883 ft 470 kts 35°
2026-04-30 17:55 33.47231 129.53059 15464 ft 452 kts 35°
2026-04-30 17:56 33.57100 129.61836 13100 ft 431 kts 35°
2026-04-30 17:57 33.64120 129.68085 11398 ft 414 kts 35°
2026-04-30 17:58 33.69593 129.75452 10845 ft 368 kts 57°
2026-04-30 17:59 33.74552 129.84961 10841 ft 310 kts 51°
2026-04-30 18:00 33.81978 129.88956 10844 ft 294 kts 15°
2026-04-30 18:00 33.87441 129.92253 10860 ft 299 kts 41°
2026-04-30 18:01 33.90402 129.95714 10843 ft 296 kts 44°
2026-04-30 18:02 33.94665 130.01167 10843 ft 298 kts 58°
2026-04-30 18:02 33.97279 130.07951 10838 ft 296 kts 69°
2026-04-30 18:03 33.99259 130.14922 10835 ft 293 kts 89°
2026-04-30 18:04 33.99013 130.22128 10829 ft 281 kts 115°
2026-04-30 18:05 33.93147 130.25937 10254 ft 246 kts 190°
2026-04-30 18:06 33.86417 130.24486 9253 ft 245 kts 193°
2026-04-30 18:07 33.79655 130.23116 8253 ft 248 kts 193°
2026-04-30 18:08 33.74560 130.22075 7838 ft 247 kts 193°
2026-04-30 18:09 33.67806 130.22482 7852 ft 263 kts 148°
2026-04-30 18:10 33.61860 130.27806 7834 ft 265 kts 149°
2026-04-30 18:11 33.55802 130.32899 7833 ft 266 kts 150°
2026-04-30 18:11 33.51152 130.36476 7837 ft 264 kts 152°
2026-04-30 18:12 33.46524 130.40036 7836 ft 263 kts 151°
2026-04-30 18:13 33.43409 130.42439 7832 ft 266 kts 152°
2026-04-30 18:13 33.39266 130.45627 7244 ft 263 kts 152°
2026-04-30 18:14 33.35739 130.48340 6693 ft 265 kts 152°
2026-04-30 18:15 33.31188 130.51952 6020 ft 256 kts 143°
2026-04-30 18:15 33.30336 130.57416 5452 ft 255 kts 54°
2026-04-30 18:16 33.32406 130.60188 5057 ft 241 kts 26°
2026-04-30 18:16 33.35446 130.60913 4735 ft 219 kts 334°
2026-04-30 18:17 33.36745 130.60072 4535 ft 211 kts 321°
2026-04-30 18:17 33.37958 130.59068 4320 ft 213 kts 322°
2026-04-30 18:17 33.40516 130.57288 3959 ft 208 kts 327°
2026-04-30 18:18 33.41811 130.56430 3965 ft 218 kts 326°
2026-04-30 18:18 33.43155 130.55516 3520 ft 225 kts 327°
2026-04-30 18:18 33.44532 130.54584 3071 ft 230 kts 327°
2026-04-30 18:18 33.45928 130.53642 2685 ft 232 kts 327°
2026-04-30 18:19 33.47334 130.52692 2355 ft 232 kts 328°
2026-04-30 18:19 33.48743 130.51739 2055 ft 230 kts 327°
2026-04-30 18:19 33.50136 130.50797 1725 ft 228 kts 328°
2026-04-30 18:19 33.51414 130.49933 1441 ft 225 kts 328°
2026-04-30 18:20 33.52699 130.49060 1150 ft 223 kts 328°
2026-04-30 18:20 33.54052 130.48146 852 ft 215 kts 327°
2026-04-30 18:20 33.55283 130.47311 627 ft 188 kts 327°
2026-04-30 18:20 33.56260 130.46645 364 ft 178 kts 326°
2026-04-30 18:21 33.57300 130.45743 607 ft 182 kts 314°
2026-04-30 18:21 33.57995 130.44663 1406 ft 160 kts 301°
2026-04-30 18:21 33.58526 130.43459 1736 ft 167 kts 302°
2026-04-30 18:21 33.59479 130.42670 2047 ft 177 kts 343°
2026-04-30 18:22 33.60690 130.42442 2470 ft 176 kts 342°
2026-04-30 18:22 33.62970 130.41292 3126 ft 194 kts 331°
2026-04-30 18:22 33.64266 130.40611 3620 ft 213 kts 333°
2026-04-30 18:23 33.65694 130.39887 3978 ft 226 kts 332°
2026-04-30 18:23 33.67018 130.38931 3966 ft 222 kts 314°
2026-04-30 18:23 33.67825 130.37369 3968 ft 220 kts 288°
2026-04-30 18:23 33.68074 130.35555 3970 ft 222 kts 277°
2026-04-30 18:24 33.68465 130.31862 3964 ft 220 kts 278°
2026-04-30 18:24 33.68680 130.30020 3969 ft 223 kts 278°
2026-04-30 18:24 33.68890 130.28201 3963 ft 220 kts 278°
2026-04-30 18:25 33.69100 130.26361 3969 ft 224 kts 279°
2026-04-30 18:25 33.69521 130.22693 3967 ft 223 kts 279°
2026-04-30 18:25 33.69736 130.20853 3972 ft 221 kts 279°
2026-04-30 18:26 33.70164 130.17152 3979 ft 221 kts 279°
2026-04-30 18:26 33.70392 130.15328 3979 ft 223 kts 279°
2026-04-30 18:26 33.70646 130.13492 3985 ft 222 kts 279°
2026-04-30 18:27 33.69579 130.10077 4116 ft 255 kts 218°
2026-04-30 18:27 33.67886 130.09402 4193 ft 259 kts 187°
2026-04-30 18:28 33.64848 130.11456 4183 ft 264 kts 124°
2026-04-30 18:28 33.64007 130.13423 4175 ft 266 kts 113°
2026-04-30 18:28 33.62551 130.17499 4174 ft 263 kts 115°
2026-04-30 18:29 33.61726 130.19498 4179 ft 266 kts 116°
2026-04-30 18:29 33.59179 130.25592 4947 ft 277 kts 117°
2026-04-30 18:30 33.57504 130.29645 4975 ft 267 kts 117°
2026-04-30 18:30 33.55409 130.33322 4968 ft 263 kts 145°
2026-04-30 18:31 33.53889 130.34540 4969 ft 263 kts 152°
2026-04-30 18:31 33.50976 130.36630 4970 ft 263 kts 151°
2026-04-30 18:32 33.47873 130.38986 4967 ft 262 kts 150°
2026-04-30 18:32 33.46330 130.40178 4969 ft 261 kts 150°
2026-04-30 18:32 33.43277 130.42535 4961 ft 260 kts 150°
2026-04-30 18:33 33.41736 130.43724 4958 ft 260 kts 150°
2026-04-30 18:33 33.38674 130.46081 4963 ft 262 kts 150°
2026-04-30 18:33 33.37156 130.47249 4963 ft 261 kts 150°
2026-04-30 18:34 33.35609 130.48433 4963 ft 262 kts 150°
2026-04-30 18:34 33.32538 130.50794 4969 ft 263 kts 150°
2026-04-30 18:34 33.31078 130.52066 4966 ft 254 kts 141°
2026-04-30 18:35 33.30065 130.53723 4957 ft 242 kts 109°
2026-04-30 18:35 33.29965 130.55576 4966 ft 223 kts 74°
2026-04-30 18:35 33.30533 130.57193 4967 ft 214 kts 53°
2026-04-30 18:36 33.32092 130.60170 4973 ft 210 kts 47°
2026-04-30 18:36 33.33212 130.61234 4972 ft 201 kts 12°
2026-04-30 18:36 33.35635 130.60591 4755 ft 178 kts 320°
2026-04-30 18:37 33.36702 130.59837 4556 ft 173 kts 326°
2026-04-30 18:37 33.37748 130.59163 4364 ft 168 kts 326°
2026-04-30 18:37 33.38757 130.58491 4306 ft 166 kts 324°
2026-04-30 18:37 33.39767 130.57791 4156 ft 170 kts 324°
2026-04-30 18:38 33.40803 130.57094 3867 ft 169 kts 325°
2026-04-30 18:38 33.41815 130.56410 3640 ft 166 kts 325°
2026-04-30 18:38 33.42805 130.55747 3398 ft 162 kts 326°
2026-04-30 18:38 33.43788 130.55086 3169 ft 160 kts 326°
2026-04-30 18:39 33.44755 130.54431 2964 ft 160 kts 326°
2026-04-30 18:39 33.45721 130.53780 2741 ft 162 kts 326°
2026-04-30 18:39 33.46685 130.53124 2499 ft 158 kts 326°
2026-04-30 18:39 33.47636 130.52480 2297 ft 162 kts 326°
2026-04-30 18:40 33.48605 130.51829 2045 ft 151 kts 326°
2026-04-30 18:40 33.49487 130.51236 1865 ft 144 kts 326°
2026-04-30 18:40 33.50356 130.50645 1679 ft 144 kts 326°
2026-04-30 18:40 33.51228 130.50055 1487 ft 142 kts 326°
2026-04-30 18:41 33.52068 130.49484 1296 ft 143 kts 326°
2026-04-30 18:41 33.52936 130.48898 1101 ft 143 kts 326°
2026-04-30 18:41 33.53798 130.48315 908 ft 142 kts 326°
2026-04-30 18:41 33.54661 130.47734 715 ft 143 kts 327°
2026-04-30 18:42 33.55538 130.47148 509 ft 144 kts 327°
2026-04-30 18:42 33.57282 130.45978 120 ft 141 kts 326°
2026-04-30 18:42 33.58028 130.45453 41 ft 126 kts 327°
2026-04-30 18:45 33.59851 130.44534 40 ft 5 kts 20°
2026-04-30 18:45 33.59868 130.44571 40 ft 5 kts 59°
2026-04-30 18:45 33.59886 130.44606 40 ft 5 kts 59°
2026-04-30 18:46 33.59904 130.44640 40 ft 0 kts 55°
2026-04-30 18:46 33.59893 130.44623 40 ft 6 kts 60°
2026-04-30 18:46 33.59893 130.44621 40 ft 0 kts 60°